Location: Skymont Scout Reservation
(35.4344°N, 85.8742°W)
Time: 08:31:13
(UTC-05:00)

ISS - All Passes

Search period start: 29 April 2017 00:00
Search period end: 09 May 2017 00:00
Orbit: 401 x 409 km, 51.6° (Epoch: 29 April)

Date Brightness Start Highest point End Pass type
(mag) Time Alt. Az. Time Alt. Az. Time Alt. Az.
29 Apr - 06:43:24 10° SSW 06:46:30 42° SE 06:49:38 10° ENE daylight
29 Apr - 08:20:44 10° WNW 08:23:08 19° NNW 08:25:33 10° NNE daylight
29 Apr - 13:14:15 10° NNW 13:16:29 17° NNE 13:18:42 10° ENE daylight
29 Apr - 14:50:00 10° WNW 14:53:10 50° SW 14:56:20 10° SSE daylight
30 Apr - 05:52:09 10° S 05:54:38 20° SE 05:57:07 10° E daylight
30 Apr - 07:28:00 10° WSW 07:30:58 31° NW 07:33:56 10° NNE daylight
30 Apr - 12:23:09 10° N 12:24:12 11° NNE 12:25:16 10° NE daylight
30 Apr - 13:57:56 10° NW 14:01:11 72° NE 14:04:25 10° SE daylight
01 May - 06:35:38 10° WSW 06:38:52 63° NW 06:42:07 10° NE daylight
01 May - 08:15:09 10° NW 08:15:54 11° NNW 08:16:39 10° N daylight
01 May - 13:06:04 10° NNW 13:09:06 35° NE 13:12:07 10° ESE daylight
01 May - 14:43:06 10° W 14:45:23 18° SW 14:47:40 10° S daylight
02 May - 05:43:38 10° SW 05:46:51 58° SE 05:50:04 10° NE daylight
02 May - 07:21:28 10° WNW 07:23:35 16° NNW 07:25:42 10° NNE daylight
02 May - 12:14:24 10° NNW 12:16:55 20° NNE 12:19:26 10° E daylight
02 May - 13:50:27 10° WNW 13:53:29 37° SW 13:56:31 10° SSE daylight
03 May - 04:52:06 10° S 04:54:54 26° SE 04:57:42 10° ENE visible
03 May - 06:28:33 10° W 06:31:20 26° NW 06:34:09 10° NNE daylight
03 May - 11:23:00 10° N 11:24:38 13° NNE 11:26:14 10° NE daylight
03 May - 12:58:14 10° NW 13:01:30 85° SW 13:04:45 10° SE daylight
04 May - 04:01:27 10° SSE 04:03:01 13° SE 04:04:36 10° E visible
04 May - 05:36:00 10° WSW 05:39:10 47° NW 05:42:22 10° NE daylight
04 May - 12:06:16 10° NW 12:09:25 44° NE 12:12:33 10° ESE daylight
04 May - 13:43:53 10° W 13:45:36 14° SW 13:47:18 10° SSW daylight
05 May - 04:43:49 10° SW 04:47:05 79° SE 04:50:21 10° NE visible
05 May - 06:22:11 10° WNW 06:23:56 14° NNW 06:25:41 10° N daylight
05 May - 11:14:28 10° NNW 11:17:13 24° NNE 11:19:57 10° E daylight
05 May - 12:50:51 10° WNW 12:53:41 28° SW 12:56:30 10° SSE daylight
06 May - 03:52:03 10° SSW 03:55:04 35° SE 03:58:05 10° ENE visible
06 May - 05:29:02 10° W 05:31:37 21° NNW 05:34:12 10° NNE daylight
06 May - 10:22:55 10° N 10:24:56 15° NNE 10:26:57 10° ENE daylight
06 May - 11:58:28 10° NW 12:01:41 62° SW 12:04:54 10° SE daylight
07 May - 03:00:55 10° S 03:03:07 17° SE 03:05:19 10° E visible
07 May - 04:36:18 10° WSW 04:39:22 37° NW 04:42:27 10° NNE visible
07 May - 09:32:08 10° NNE 09:32:33 10° NNE 09:32:57 10° NNE daylight
07 May - 11:06:22 10° NW 11:09:36 59° NE 11:12:48 10° ESE daylight
07 May - 12:45:14 10° WSW 12:45:41 10° SW 12:46:07 10° SW daylight
08 May - 03:43:57 10° SW 03:47:13 77° NW 03:50:30 10° NE visible
08 May - 05:22:54 10° NW 05:24:10 12° NNW 05:25:26 10° N daylight
08 May - 10:14:29 10° NNW 10:17:24 30° NE 10:20:19 10° E daylight
08 May - 11:51:13 10° WNW 11:53:45 21° SW 11:56:17 10° S daylight
